Location: Oakhurst
(33.6448°N, 111.9543°W)
Time: 03:00:45
(UTC+00:00)

HuskySat-1 - Visible Passes

Search period start: 05 August 2021 00:00
Search period end: 15 August 2021 00:00
Orbit: 448 x 462 km, 51.6° (Epoch: 04 August)

Date Brightness Start Highest point End Pass type
(mag) Time Alt. Az. Time Alt. Az. Time Alt. Az.
06 Aug ? 05:34:43 10° NNW 05:35:03 12° NNW 05:35:03 12° NNW visible
07 Aug ? 04:58:58 10° NNW 05:00:12 15° N 05:00:12 15° N visible
08 Aug ? 04:23:16 10° N 04:25:23 15° NNE 04:25:23 15° NNE visible
09 Aug ? 03:47:41 10° N 03:49:17 12° NNE 03:50:36 11° NE visible
09 Aug ? 05:23:46 10° NW 05:24:17 14° NW 05:24:17 14° NW visible
10 Aug ? 03:12:31 10° NNE 03:13:07 10° NNE 03:13:43 10° NE visible
10 Aug ? 04:47:46 10° NW 04:49:32 27° NNW 04:49:32 27° NNW visible
11 Aug ? 04:11:50 10° NW 04:14:50 42° NNE 04:14:50 42° NNE visible
12 Aug ? 03:35:54 10° NNW 03:39:10 33° NE 03:40:11 28° ENE visible
13 Aug ? 03:00:01 10° NNW 03:03:03 26° NE 03:05:36 13° E visible
13 Aug ? 04:37:32 10° WNW 04:39:18 21° W 04:39:18 21° W visible
14 Aug ? 04:01:17 10° WNW 04:04:35 38° SW 04:04:47 38° SW visible
